Home > Weather > Altstätten > Past weeks

Flag for Switzerland Past Weather in Altstätten, St. Gallen, Switzerland — Yesterday and Last 2 Weeks

Now
64 °F

Broken clouds.


Feels Like: 64 °F
Forecast: 57 / 79 °F
Wind: 5 mph from East

Location: Saint Gallen-Altenrhein

Current Time: Jun 30, 2016 at 8:46:32 AM

Latest Report: Jun 30, 2016 at 8:20 AM


Visibility: N/A

Pressure: 30.01 "Hg

Humidity: 88%

Dew Point: 61 °F

Location of AltstättenLocation

Past Weather in Altstätten — Graph

°F

Altstätten Temperature Yesterday

Maximum temperature yesterday: 77 °F (at 4:20 PM)
Minimum temperature yesterday: 61 °F (at 4:20 AM)
Average temperature yesterday: 70 °F

High & Low Weather Summary for the Past Weeks

 TemperatureHumidityPressure
High88 °F (Jun 23, 4:50 PM)100% (Jun 16, 1:50 AM)30.27 "Hg (Jun 16, 1:50 AM)
Low48 °F (Jun 17, 5:20 AM)36% (Jun 28, 5:50 PM)29.56 "Hg (Jun 16, 6:20 AM)
Average65 °F77%30.05 "Hg
* Reported Jun 15 7:20 AM — Jun 30 7:20 AM, Altstätten, Weather by CustomWeather, © 2016

Note: Actual official high and low records may vary slightly from our data, if they occured in-between our weather recording intervals... More about our weather records

Advertising

Altstätten Weather History for the Previous 24 Hours

Scroll right to see more
 ConditionsComfort  
Time TempWeatherWind HumidityBarometerVisibility
7:20 AM
Thu, Jun 30
63 °FRain. Partly sunny.8 mph94%30.01 "HgN/A
6:50 AM63 °FRain. Broken clouds.10 mph94%30.04 "HgN/A
6:20 AM63 °FRain. Partly cloudy.5 mph94%30.04 "Hg4 mi
5:50 AM63 °FThundershowers. Partly cloudy.3 mph94%30.04 "Hg4 mi
5:20 AM63 °FHeavy rain. Fog.2 mph94%30.04 "Hg3 mi
4:50 AM63 °FPartly cloudy.2 mph94%30.01 "HgN/A
4:20 AM64 °FPartly cloudy.5 mph88%30.01 "HgN/A
3:50 AM64 °FPartly cloudy.3 mph83%30.01 "HgN/A
3:20 AM64 °FPartly cloudy.3 mph83%30.01 "HgN/A
2:50 AM64 °FPassing clouds.6 mph83%29.98 "HgN/A
2:20 AM70 °FPassing clouds.12 mph78%29.98 "HgN/A
1:50 AM66 °FMild.5 mph88%29.95 "HgN/A
1:20 AM68 °FPassing clouds.5 mph83%29.95 "HgN/A
12:50 AM66 °FMild.2 mph83%29.95 "HgN/A
12:20 AM66 °FMild.5 mph88%29.95 "HgN/A
11:50 PM
Wed, Jun 29
68 °FClear.1 mph83%29.95 "Hg10 mi
11:20 PM68 °FClear.2 mph83%29.95 "HgN/A
10:50 PM72 °FPassing clouds.5 mph69%29.95 "HgN/A
10:20 PM72 °FThundershowers. Broken clouds.5 mph69%29.95 "HgN/A
9:50 PM72 °FLight rain. Partly sunny.3 mph69%29.95 "HgN/A
9:20 PM73 °FClear.2 mph65%29.95 "HgN/A
8:50 PM75 °FSunny.2 mph61%29.92 "Hg10 mi
8:20 PM75 °FPartly sunny.2 mph65%29.95 "HgN/A
7:50 PM77 °FPartly sunny.1 mph57%29.95 "HgN/A
7:20 PM77 °FPassing clouds.2 mph54%29.95 "HgN/A
6:50 PM77 °FPassing clouds.3 mph54%29.95 "HgN/A
6:20 PM77 °FPassing clouds.5 mph54%29.95 "HgN/A
5:50 PM77 °FPassing clouds.5 mph57%29.95 "HgN/A
5:20 PM77 °FPassing clouds.5 mph54%29.95 "HgN/A
4:50 PM77 °FPassing clouds.5 mph54%29.98 "HgN/A
4:20 PM77 °FPassing clouds.5 mph54%29.98 "HgN/A
3:50 PM75 °FPassing clouds.6 mph61%29.98 "HgN/A
3:20 PM75 °FPassing clouds.5 mph61%30.01 "HgN/A
2:50 PM75 °FPassing clouds.5 mph57%30.01 "HgN/A
2:20 PM73 °FPassing clouds.5 mph61%30.01 "HgN/A
1:50 PM72 °FPassing clouds.7 mph61%30.04 "HgN/A
1:20 PM73 °FPassing clouds.6 mph65%30.04 "HgN/A
12:50 PM72 °FPassing clouds.7 mph65%30.04 "HgN/A
12:20 PM72 °FPassing clouds.6 mph69%30.04 "HgN/A
11:50 AM70 °FScattered clouds.5 mph69%30.04 "HgN/A
11:20 AM70 °FScattered clouds.5 mph64%30.04 "HgN/A
10:50 AM68 °FScattered clouds.5 mph73%30.04 "HgN/A
10:20 AM68 °FPartly sunny.5 mph78%30.04 "HgN/A
9:50 AM68 °FPartly sunny.3 mph73%30.04 "HgN/A
9:20 AM66 °FBroken clouds.5 mph73%30.07 "HgN/A
8:50 AM66 °FPartly sunny.3 mph78%30.07 "HgN/A
8:20 AM66 °FPartly sunny.5 mph83%30.07 "HgN/A
Weather by CustomWeather, © 2016

See weather overviewHow to use our weather pages